| time (UTC) | temp F | wind direction | speed knots | gust knots | rain 1hr in | rain 24hr in | rain mn in | humidity % | barometer mb |
| 20260507190529 | 53 | 29 | 1.7 | 10.4 | 0.00 | 0.00 | 0.00 | 30 | 1012.4 |
| 20260507190027 | 53 | 273 | 3.5 | 12.2 | 0.00 | 0.00 | 0.00 | 32 | 1012.5 |
| 20260507185529 | 53 | 284 | 4.3 | 12.2 | 0.00 | 0.00 | 0.00 | 31 | 1012.4 |
| 20260507185024 | 53 | 277 | 2.6 | 10.4 | 0.00 | 0.00 | 0.00 | 32 | 1012.4 |
| 20260507184523 | 52 | 283 | 4.3 | 10.4 | 0.00 | 0.00 | 0.00 | 30 | 1012.4 |
| 20260507184023 | 52 | 34 | 1.7 | 7.8 | 0.00 | 0.00 | 0.00 | 32 | 1012.5 |
| 20260507183522 | 52 | 305 | 1.7 | 9.6 | 0.00 | 0.00 | 0.00 | 30 | 1012.6 |
| 20260507183021 | 52 | 323 | 5.2 | 13.0 | 0.00 | 0.00 | 0.00 | 30 | 1012.7 |
| 20260507182521 | 52 | 283 | 8.7 | 13.0 | 0.00 | 0.00 | 0.00 | 30 | 1012.7 |
| 20260507182020 | 52 | 293 | 0.0 | 9.6 | 0.00 | 0.00 | 0.00 | 32 | 1012.7 |
| 20260507181524 | 51 | 58 | 3.5 | 9.6 | 0.00 | 0.00 | 0.00 | 32 | 1012.8 |
| 20260507181019 | 51 | 295 | 5.2 | 11.3 | 0.00 | 0.00 | 0.00 | 30 | 1012.8 |
| 20260507180517 | 51 | 329 | 3.5 | 14.8 | 0.00 | 0.00 | 0.00 | 32 | 1012.9 |
| 20260507180023 | 51 | 299 | 7.0 | 14.8 | 0.00 | 0.00 | 0.00 | 31 | 1012.8 |
| 20260507175517 | 51 | 311 | 6.1 | 12.2 | 0.00 | 0.00 | 0.00 | 31 | 1012.9 |
| 20260507175116 | 51 | 263 | 7.0 | 10.4 | 0.00 | 0.00 | 0.00 | 31 | 1012.8 |
| 20260507174515 | 50 | 273 | 6.1 | 11.3 | 0.00 | 0.00 | 0.00 | 32 | 1013.0 |
| 20260507174014 | 50 | 276 | 6.1 | 10.4 | 0.00 | 0.00 | 0.00 | 33 | 1013.1 |
| 20260507173514 | 50 | 320 | 3.5 | 11.3 | 0.00 | 0.00 | 0.00 | 32 | 1013.2 |
| 20260507173027 | 50 | 312 | 2.6 | 11.3 | 0.00 | 0.00 | 0.00 | 32 | 1013.3 |
| 20260507172513 | 50 | 311 | 3.5 | 10.4 | 0.00 | 0.00 | 0.00 | 33 | 1013.3 |
| 20260507172011 | 50 | 300 | 3.5 | 13.0 | 0.00 | 0.00 | 0.00 | 32 | 1013.2 |
| 20260507171511 | 50 | 278 | 7.0 | 13.0 | 0.00 | 0.00 | 0.00 | 32 | 1013.3 |
| 20260507171012 | 50 | 288 | 4.3 | 7.0 | 0.00 | 0.00 | 0.00 | 32 | 1013.4 |
| 20260507170510 | 50 | 281 | 0.9 | 4.3 | 0.00 | 0.00 | 0.00 | 34 | 1013.4 |
| 20260507170008 | 49 | 118 | 0.9 | 7.0 | 0.00 | 0.00 | 0.00 | 33 | 1013.4 |
| 20260507165510 | 49 | 280 | 4.3 | 11.3 | 0.00 | 0.00 | 0.00 | 32 | 1013.5 |
| 20260507165010 | 49 | 314 | 5.2 | 12.2 | 0.00 | 0.00 | 0.00 | 33 | 1013.5 |
| 20260507164508 | 49 | 290 | 6.1 | 13.9 | 0.00 | 0.00 | 0.00 | 33 | 1013.5 |
| 20260507164007 | 49 | 278 | 7.0 | 13.9 | 0.00 | 0.00 | 0.00 | 33 | 1013.5 |
| 20260507163506 | 49 | 292 | 1.7 | 7.0 | 0.00 | 0.00 | 0.00 | 34 | 1013.7 |
| 20260507163010 | 49 | 307 | 2.6 | 7.0 | 0.00 | 0.00 | 0.00 | 33 | 1013.8 |
| 20260507162504 | 49 | 276 | 1.7 | 7.8 | 0.00 | 0.00 | 0.00 | 35 | 1013.8 |
| 20260507162004 | 49 | 316 | 4.3 | 7.8 | 0.00 | 0.00 | 0.00 | 34 | 1013.9 |
| 20260507161503 | 48 | 316 | 0.0 | 7.8 | 0.00 | 0.00 | 0.00 | 36 | 1013.9 |
| 20260507161002 | 48 | 79 | 4.3 | 7.8 | 0.00 | 0.00 | 0.00 | 34 | 1013.9 |
| 20260507160501 | 48 | 20 | 0.0 | 4.3 | 0.00 | 0.00 | 0.00 | 40 | 1013.9 |
| 20260507160100 | 48 | 323 | 1.7 | 5.2 | 0.00 | 0.00 | 0.00 | 38 | 1014.0 |
| 20260507155559 | 47 | 316 | 2.6 | 5.2 | 0.00 | 0.00 | 0.00 | 38 | 1013.9 |
| 20260507155106 | 47 | 292 | 0.0 | 7.8 | 0.00 | 0.00 | 0.00 | 39 | 1014.0 |
| 20260507154600 | 47 | 293 | 3.5 | 7.8 | 0.00 | 0.00 | 0.00 | 37 | 1014.0 |
| 20260507154059 | 47 | 281 | 0.9 | 4.3 | 0.00 | 0.00 | 0.00 | 43 | 1014.0 |
| 20260507153556 | 47 | 278 | 0.9 | 6.1 | 0.00 | 0.00 | 0.00 | 42 | 1014.1 |
| 20260507153056 | 46 | 200 | 2.6 | 7.8 | 0.00 | 0.00 | 0.00 | 43 | 1014.0 |
| 20260507152555 | 46 | 297 | 4.3 | 7.8 | 0.00 | 0.00 | 0.00 | 43 | 1014.1 |
| 20260507152053 | 45 | 167 | 0.0 | 8.7 | 0.00 | 0.00 | 0.00 | 42 | 1014.1 |
| 20260507151553 | 45 | 259 | 3.5 | 8.7 | 0.00 | 0.00 | 0.00 | 43 | 1014.1 |
| 20260507151051 | 46 | 288 | 3.5 | 7.0 | 0.00 | 0.00 | 0.00 | 44 | 1014.0 |
| 20260507150552 | 46 | 276 | 3.5 | 5.2 | 0.00 | 0.00 | 0.00 | 44 | 1014.1 |
| 20260507150049 | 45 | 315 | 0.0 | 7.0 | 0.00 | 0.00 | 0.00 | 47 | 1014.1 |
| 20260507145548 | 45 | 287 | 2.6 | 6.1 | 0.00 | 0.00 | 0.00 | 46 | 1014.1 |
| 20260507145049 | 45 | 274 | 2.6 | 6.1 | 0.00 | 0.00 | 0.00 | 47 | 1014.2 |
| 20260507144547 | 44 | 280 | 1.7 | 6.1 | 0.00 | 0.00 | 0.00 | 46 | 1014.2 |
| 20260507144048 | 44 | 297 | 1.7 | 6.1 | 0.00 | 0.00 | 0.00 | 47 | 1014.2 |
| 20260507143550 | 44 | 274 | 1.7 | 5.2 | 0.00 | 0.00 | 0.00 | 48 | 1014.2 |
| 20260507143045 | 44 | 290 | 1.7 | 4.3 | 0.00 | 0.00 | 0.00 | 49 | 1014.2 |
| 20260507142544 | 44 | 288 | 0.9 | 4.3 | 0.00 | 0.00 | 0.00 | 49 | 1014.3 |
| 20260507142043 | 44 | 293 | 1.7 | 4.3 | 0.00 | 0.00 | 0.00 | 51 | 1014.3 |
| 20260507141548 | 44 | 297 | 0.9 | 5.2 | 0.00 | 0.00 | 0.00 | 51 | 1014.3 |
| 20260507141042 | 44 | 316 | 1.7 | 5.2 | 0.00 | 0.00 | 0.00 | 51 | 1014.3 |
| 20260507140543 | 44 | 302 | 0.0 | 2.6 | 0.00 | 0.00 | 0.00 | 55 | 1014.3 |
| 20260507140043 | 43 | 316 | 0.0 | 2.6 | 0.00 | 0.00 | 0.00 | 56 | 1014.3 |
| 20260507135538 | 43 | 246 | 0.9 | 2.6 | 0.00 | 0.00 | 0.00 | 59 | 1014.3 |
| 20260507135037 | 43 | 283 | 0.0 | 3.5 | 0.00 | 0.00 | 0.00 | 62 | 1014.3 |
| 20260507134539 | 42 | 228 | 0.9 | 4.3 | 0.00 | 0.00 | 0.00 | 63 | 1014.4 |
| 20260507134035 | 42 | 253 | 1.7 | 4.3 | 0.00 | 0.00 | 0.00 | 65 | 1014.4 |
| 20260507133533 | 41 | 274 | 1.7 | 3.5 | 0.00 | 0.00 | 0.00 | 65 | 1014.4 |
| 20260507133035 | 41 | 269 | 1.7 | 3.5 | 0.00 | 0.00 | 0.00 | 67 | 1014.4 |
| 20260507132533 | 41 | 253 | 0.0 | 1.7 | 0.00 | 0.00 | 0.00 | 69 | 1014.5 |
| 20260507132028 | 40 | 293 | 0.0 | 1.7 | 0.00 | 0.00 | 0.00 | 71 | 1014.5 |
| 20260507131533 | 40 | 284 | 0.9 | 2.6 | 0.00 | 0.00 | 0.00 | 73 | 1014.5 |
| 20260507131028 | 39 | 271 | 0.0 | 3.5 | 0.00 | 0.00 | 0.00 | 73 | 1014.6 |
| 20260507130528 | 39 | 302 | 1.7 | 3.5 | 0.00 | 0.00 | 0.00 | 74 | 1014.5 |
| 20260507130024 | 39 | 275 | 0.0 | 0.9 | 0.00 | 0.00 | 0.00 | 78 | 1014.5 |
| 20260507125523 | 38 | 281 | 0.0 | 1.7 | 0.00 | 0.00 | 0.00 | 79 | 1014.5 |
| 20260507125022 | 37 | 276 | 0.0 | 1.7 | 0.00 | 0.00 | 0.00 | 79 | 1014.6 |
| 20260507124529 | 37 | 283 | 0.9 | 1.7 | 0.00 | 0.00 | 0.00 | 80 | 1014.6 |
| 20260507124019 | 36 | 290 | 0.0 | 1.7 | 0.00 | 0.00 | 0.00 | 82 | 1014.7 |
| 20260507123519 | 36 | 287 | 0.9 | 2.6 | 0.00 | 0.00 | 0.00 | 82 | 1014.6 |
| 20260507123017 | 35 | 284 | 0.9 | 2.6 | 0.00 | 0.00 | 0.00 | 82 | 1014.7 |
| 20260507122521 | 35 | 285 | 0.0 | 1.7 | 0.00 | 0.00 | 0.00 | 83 | 1014.7 |
| 20260507122019 | 35 | 288 | 0.0 | 1.7 | 0.00 | 0.00 | 0.00 | 84 | 1014.7 |
| 20260507121518 | 34 | 290 | 0.0 | 0.9 | 0.00 | 0.00 | 0.00 | 84 | 1014.6 |
| 20260507121018 | 34 | 291 | 0.0 | 0.9 | 0.00 | 0.00 | 0.00 | 85 | 1014.6 |
| 20260507120517 | 33 | 290 | 0.0 | 0.9 | 0.00 | 0.00 | 0.00 | 87 | 1014.5 |
| 20260507120018 | 33 | 293 | 0.0 | 0.9 | 0.00 | 0.00 | 0.00 | 89 | 1014.6 |
| 20260507115517 | 32 | 293 | 0.0 | 0.0 | 0.00 | 0.00 | 0.00 | 90 | 1014.5 |
| 20260507115016 | 31 | 293 | 0.0 | 0.9 | 0.00 | 0.00 | 0.00 | 91 | 1014.5 |
| 20260507114516 | 30 | 293 | 0.0 | 0.9 | 0.00 | 0.00 | 0.00 | 91 | 1014.6 |
| 20260507114016 | 29 | 293 | 0.0 | 0.0 | 0.00 | 0.00 | 0.00 | 90 | 1014.6 |
| 20260507113520 | 29 | 292 | 0.0 | 0.0 | 0.00 | 0.00 | 0.00 | 90 | 1014.6 |
| 20260507113016 | 29 | 293 | 0.0 | 0.0 | 0.00 | 0.00 | 0.00 | 90 | 1014.6 |
| 20260507112520 | 29 | 293 | 0.0 | 0.9 | 0.00 | 0.00 | 0.00 | 91 | 1014.6 |
| 20260507112015 | 29 | 293 | 0.0 | 0.9 | 0.00 | 0.00 | 0.00 | 91 | 1014.6 |
| 20260507111514 | 28 | 293 | 0.0 | 0.9 | 0.00 | 0.00 | 0.00 | 90 | 1014.5 |
| 20260507111018 | 28 | 293 | 0.0 | 0.9 | 0.00 | 0.00 | 0.00 | 89 | 1014.5 |
| 20260507110513 | 28 | 292 | 0.0 | 0.9 | 0.00 | 0.00 | 0.00 | 89 | 1014.6 |
| 20260507110113 | 28 | 284 | 0.0 | 0.0 | 0.00 | 0.00 | 0.00 | 88 | 1014.6 |
| 20260507105511 | 28 | 277 | 0.0 | 0.0 | 0.00 | 0.00 | 0.00 | 88 | 1014.6 |
| 20260507105013 | 28 | 277 | 0.0 | 0.0 | 0.00 | 0.00 | 0.00 | 86 | 1014.5 |
| 20260507104534 | 28 | 277 | 0.0 | 0.0 | 0.00 | 0.00 | 0.00 | 86 | 1014.5 |
| 20260507104009 | 29 | 277 | 0.0 | 0.0 | 0.00 | 0.00 | 0.00 | 86 | 1014.5 |
| 20260507103508 | 29 | 277 | 0.0 | 0.0 | 0.00 | 0.00 | 0.00 | 86 | 1014.6 |
| 20260507103009 | 29 | 277 | 0.0 | 0.0 | 0.00 | 0.00 | 0.00 | 86 | 1014.7 |
| 20260507102506 | 29 | 277 | 0.0 | 0.0 | 0.00 | 0.00 | 0.00 | 85 | 1014.7 |
| 20260507102007 | 29 | 266 | 0.0 | 0.0 | 0.00 | 0.00 | 0.00 | 83 | 1014.6 |
| 20260507101512 | 29 | 266 | 0.0 | 0.0 | 0.00 | 0.00 | 0.00 | 83 | 1014.6 |
| 20260507101008 | 29 | 266 | 0.0 | 0.0 | 0.00 | 0.00 | 0.00 | 82 | 1014.6 |
| 20260507100503 | 30 | 266 | 0.0 | 0.0 | 0.00 | 0.00 | 0.00 | 82 | 1014.6 |
| 20260507100006 | 30 | 266 | 0.0 | 0.0 | 0.00 | 0.00 | 0.00 | 82 | 1014.6 |
| 20260507095503 | 29 | 265 | 0.0 | 0.9 | 0.00 | 0.00 | 0.00 | 82 | 1014.7 |
| 20260507095003 | 30 | 257 | 0.0 | 0.9 | 0.00 | 0.00 | 0.00 | 82 | 1014.7 |
| 20260507094502 | 30 | 253 | 0.0 | 0.9 | 0.00 | 0.00 | 0.00 | 81 | 1014.7 |
| 20260507094001 | 30 | 259 | 0.0 | 0.9 | 0.00 | 0.00 | 0.00 | 81 | 1014.7 |
| 20260507093503 | 30 | 257 | 0.0 | 0.9 | 0.00 | 0.00 | 0.00 | 81 | 1014.8 |
| 20260507093100 | 30 | 249 | 0.0 | 0.9 | 0.00 | 0.00 | 0.00 | 81 | 1014.8 |
| 20260507092600 | 30 | 242 | 0.0 | 0.9 | 0.00 | 0.00 | 0.00 | 81 | 1014.7 |
| 20260507092102 | 30 | 242 | 0.9 | 0.9 | 0.00 | 0.00 | 0.00 | 81 | 1014.7 |
| 20260507091558 | 31 | 242 | 0.0 | 0.9 | 0.00 | 0.00 | 0.00 | 82 | 1014.8 |
| 20260507091056 | 31 | 249 | 0.0 | 0.9 | 0.00 | 0.00 | 0.00 | 83 | 1014.8 |
| 20260507090554 | 31 | 265 | 0.0 | 0.9 | 0.00 | 0.00 | 0.00 | 83 | 1014.8 |
| 20260507090059 | 32 | 267 | 0.0 | 1.7 | 0.00 | 0.00 | 0.00 | 82 | 1014.8 |
| 20260507085553 | 32 | 280 | 0.0 | 1.7 | 0.00 | 0.00 | 0.00 | 82 | 1014.9 |
| 20260507085053 | 32 | 276 | 0.0 | 1.7 | 0.00 | 0.00 | 0.00 | 82 | 1014.9 |
| 20260507084559 | 32 | 277 | 0.0 | 1.7 | 0.00 | 0.00 | 0.00 | 82 | 1014.9 |
| 20260507084054 | 32 | 278 | 0.0 | 1.7 | 0.00 | 0.00 | 0.00 | 81 | 1014.9 |
| 20260507083552 | 32 | 277 | 0.0 | 1.7 | 0.00 | 0.00 | 0.00 | 81 | 1014.9 |
| 20260507083052 | 32 | 285 | 0.9 | 1.7 | 0.00 | 0.00 | 0.00 | 80 | 1014.9 |
| 20260507082551 | 32 | 288 | 0.9 | 1.7 | 0.00 | 0.00 | 0.00 | 80 | 1014.8 |
| 20260507082050 | 32 | 285 | 0.0 | 1.7 | 0.00 | 0.00 | 0.00 | 80 | 1014.8 |
| 20260507081552 | 32 | 281 | 0.9 | 1.7 | 0.00 | 0.00 | 0.00 | 81 | 1014.8 |
| 20260507081050 | 33 | 285 | 0.9 | 1.7 | 0.00 | 0.00 | 0.00 | 81 | 1014.8 |
| 20260507080550 | 33 | 287 | 0.9 | 2.6 | 0.00 | 0.00 | 0.00 | 81 | 1014.8 |
| 20260507080105 | 32 | 301 | 0.9 | 2.6 | 0.00 | 0.00 | 0.00 | 80 | 1014.8 |
| 20260507075549 | 32 | 281 | 0.9 | 2.6 | 0.00 | 0.00 | 0.00 | 80 | 1014.8 |
| 20260507075048 | 32 | 285 | 0.9 | 2.6 | 0.00 | 0.00 | 0.00 | 79 | 1014.8 |
| 20260507074549 | 32 | 283 | 0.0 | 1.7 | 0.00 | 0.00 | 0.00 | 78 | 1014.8 |
| 20260507074047 | 32 | 263 | 0.0 | 1.7 | 0.00 | 0.00 | 0.00 | 78 | 1014.8 |
| 20260507073547 | 32 | 259 | 0.0 | 1.7 | 0.00 | 0.00 | 0.00 | 78 | 1014.8 |
| 20260507073051 | 32 | 270 | 0.0 | 3.5 | 0.00 | 0.00 | 0.00 | 79 | 1014.9 |
| 20260507072545 | 32 | 266 | 1.7 | 3.5 | 0.00 | 0.00 | 0.00 | 79 | 1015.1 |
| 20260507072045 | 32 | 274 | 0.0 | 1.7 | 0.00 | 0.00 | 0.00 | 78 | 1015.1 |
| 20260507071545 | 32 | 273 | 0.0 | 1.7 | 0.00 | 0.00 | 0.00 | 77 | 1015.1 |
| 20260507071044 | 32 | 273 | 0.9 | 1.7 | 0.00 | 0.00 | 0.00 | 77 | 1015.2 |
| 20260507070544 | 32 | 266 | 0.9 | 1.7 | 0.00 | 0.00 | 0.00 | 78 | 1015.1 |
| 20260507070044 | 32 | 266 | 0.9 | 1.7 | 0.00 | 0.00 | 0.00 | 78 | 1015.2 |
| 20260507065544 | 32 | 249 | 0.0 | 0.9 | 0.00 | 0.00 | 0.00 | 78 | 1015.1 |
| 20260507065040 | 33 | 282 | 0.0 | 0.9 | 0.00 | 0.00 | 0.00 | 79 | 1015.1 |
| 20260507064540 | 33 | 283 | 0.0 | 0.9 | 0.00 | 0.00 | 0.00 | 80 | 1015.1 |
| 20260507064039 | 33 | 285 | 0.0 | 0.9 | 0.00 | 0.00 | 0.00 | 81 | 1015.2 |
| 20260507063539 | 33 | 277 | 0.0 | 0.9 | 0.00 | 0.00 | 0.00 | 80 | 1015.3 |
| 20260507063037 | 33 | 277 | 0.0 | 0.9 | 0.00 | 0.00 | 0.00 | 79 | 1015.3 |
| 20260507062536 | 34 | 281 | 0.0 | 0.9 | 0.00 | 0.00 | 0.00 | 80 | 1015.3 |
| 20260507062035 | 34 | 277 | 0.0 | 0.9 | 0.00 | 0.00 | 0.00 | 80 | 1015.4 |
| 20260507061535 | 34 | 276 | 0.0 | 0.9 | 0.00 | 0.00 | 0.00 | 81 | 1015.5 |
| 20260507061034 | 34 | 276 | 0.0 | 0.0 | 0.00 | 0.00 | 0.00 | 80 | 1015.5 |
| 20260507060533 | 34 | 276 | 0.0 | 0.9 | 0.00 | 0.00 | 0.00 | 78 | 1015.5 |
| 20260507060038 | 34 | 276 | 0.0 | 0.9 | 0.00 | 0.00 | 0.00 | 78 | 1015.6 |
| 20260507055532 | 34 | 283 | 0.0 | 0.9 | 0.00 | 0.00 | 0.00 | 78 | 1015.7 |
| 20260507055033 | 34 | 285 | 0.0 | 0.9 | 0.00 | 0.00 | 0.00 | 78 | 1015.6 |
| 20260507054537 | 34 | 285 | 0.0 | 0.9 | 0.00 | 0.00 | 0.00 | 77 | 1015.6 |
| 20260507054030 | 35 | 285 | 0.0 | 0.9 | 0.00 | 0.00 | 0.00 | 77 | 1015.7 |
| 20260507053529 | 35 | 290 | 0.0 | 0.9 | 0.00 | 0.00 | 0.00 | 77 | 1015.7 |
| 20260507053028 | 35 | 333 | 0.0 | 0.0 | 0.00 | 0.00 | 0.00 | 75 | 1015.8 |
| 20260507052527 | 35 | 333 | 0.0 | 0.0 | 0.00 | 0.00 | 0.00 | 73 | 1015.8 |
| 20260507052026 | 35 | 333 | 0.0 | 0.0 | 0.00 | 0.00 | 0.00 | 70 | 1015.8 |
| 20260507051524 | 36 | 333 | 0.0 | 0.0 | 0.00 | 0.00 | 0.00 | 68 | 1015.9 |
| 20260507051024 | 36 | 333 | 0.0 | 0.9 | 0.00 | 0.00 | 0.00 | 68 | 1015.9 |
| 20260507050522 | 36 | 333 | 0.0 | 1.7 | 0.00 | 0.00 | 0.00 | 68 | 1015.9 |
| 20260507050026 | 36 | 311 | 0.0 | 0.9 | 0.00 | 0.00 | 0.00 | 68 | 1015.9 |
| 20260507045521 | 36 | 311 | 0.0 | 0.9 | 0.00 | 0.00 | 0.00 | 67 | 1016.0 |
| 20260507045020 | 37 | 318 | 0.0 | 0.9 | 0.00 | 0.00 | 0.00 | 67 | 1015.9 |
| 20260507044521 | 37 | 295 | 0.0 | 0.9 | 0.00 | 0.00 | 0.00 | 66 | 1016.0 |
| 20260507044020 | 37 | 295 | 0.0 | 0.9 | 0.00 | 0.00 | 0.00 | 66 | 1016.0 |
| 20260507043520 | 37 | 299 | 0.0 | 0.9 | 0.00 | 0.00 | 0.00 | 66 | 1016.1 |
| 20260507043023 | 37 | 288 | 0.0 | 0.0 | 0.00 | 0.00 | 0.00 | 66 | 1016.0 |
| 20260507042519 | 37 | 288 | 0.0 | 0.9 | 0.00 | 0.00 | 0.00 | 66 | 1016.0 |
| 20260507042019 | 37 | 288 | 0.0 | 0.9 | 0.00 | 0.00 | 0.00 | 66 | 1016.1 |
| 20260507041519 | 37 | 288 | 0.0 | 0.9 | 0.00 | 0.00 | 0.00 | 66 | 1016.1 |
| 20260507041018 | 37 | 315 | 0.0 | 0.9 | 0.00 | 0.00 | 0.00 | 66 | 1016.1 |
| 20260507040519 | 37 | 315 | 0.0 | 0.9 | 0.00 | 0.00 | 0.00 | 65 | 1016.2 |
| 20260507040018 | 38 | 9 | 0.0 | 0.0 | 0.00 | 0.00 | 0.00 | 64 | 1016.2 |
| 20260507035518 | 38 | 10 | 0.0 | 0.0 | 0.00 | 0.00 | 0.00 | 63 | 1016.3 |
| 20260507035018 | 38 | 10 | 0.0 | 0.0 | 0.00 | 0.00 | 0.00 | 62 | 1016.3 |
| 20260507034520 | 39 | 10 | 0.0 | 0.9 | 0.00 | 0.00 | 0.00 | 61 | 1016.2 |
| 20260507034017 | 39 | 10 | 0.0 | 0.9 | 0.00 | 0.00 | 0.00 | 61 | 1016.2 |
| 20260507033517 | 39 | 11 | 0.0 | 0.9 | 0.00 | 0.00 | 0.00 | 60 | 1016.2 |
| 20260507033016 | 39 | 315 | 0.0 | 0.9 | 0.00 | 0.00 | 0.00 | 60 | 1016.3 |
| 20260507032516 | 39 | 330 | 0.0 | 0.9 | 0.00 | 0.00 | 0.00 | 60 | 1016.3 |
| 20260507032015 | 39 | 312 | 0.0 | 0.9 | 0.00 | 0.00 | 0.00 | 60 | 1016.3 |
| 20260507031515 | 39 | 307 | 0.0 | 0.9 | 0.00 | 0.00 | 0.00 | 60 | 1016.3 |
| 20260507031016 | 39 | 308 | 0.0 | 0.9 | 0.00 | 0.00 | 0.00 | 60 | 1016.3 |
| 20260507030516 | 39 | 316 | 0.0 | 0.9 | 0.00 | 0.00 | 0.00 | 60 | 1016.4 |
| 20260507030019 | 39 | 339 | 0.0 | 0.9 | 0.00 | 0.00 | 0.00 | 60 | 1016.3 |
| 20260507025515 | 39 | 339 | 0.0 | 0.0 | 0.00 | 0.00 | 0.00 | 61 | 1016.4 |
| 20260507025015 | 39 | 311 | 0.0 | 0.0 | 0.00 | 0.00 | 0.00 | 61 | 1016.4 |
| 20260507024515 | 39 | 311 | 0.0 | 0.0 | 0.00 | 0.00 | 0.00 | 61 | 1016.4 |
| 20260507024017 | 39 | 311 | 0.0 | 0.0 | 0.00 | 0.00 | 0.00 | 60 | 1016.3 |
| 20260507023516 | 39 | 311 | 0.0 | 0.0 | 0.00 | 0.00 | 0.00 | 60 | 1016.4 |
| 20260507023014 | 39 | 311 | 0.0 | 0.0 | 0.00 | 0.00 | 0.00 | 59 | 1016.4 |
| 20260507022514 | 39 | 311 | 0.0 | 0.9 | 0.00 | 0.00 | 0.00 | 57 | 1016.4 |
| 20260507022017 | 39 | 311 | 0.0 | 0.9 | 0.00 | 0.00 | 0.00 | 57 | 1016.4 |
| 20260507021514 | 39 | 307 | 0.0 | 0.9 | 0.00 | 0.00 | 0.00 | 56 | 1016.5 |
| 20260507021013 | 40 | 316 | 0.0 | 1.7 | 0.00 | 0.00 | 0.00 | 56 | 1016.4 |
| 20260507020514 | 40 | 319 | 0.0 | 1.7 | 0.00 | 0.00 | 0.00 | 55 | 1016.3 |
| 20260507020014 | 40 | 313 | 0.0 | 1.7 | 0.00 | 0.00 | 0.00 | 55 | 1016.3 |
| 20260507015513 | 40 | 328 | 0.0 | 3.5 | 0.00 | 0.00 | 0.00 | 55 | 1016.3 |
| 20260507015013 | 40 | 6 | 0.9 | 3.5 | 0.00 | 0.00 | 0.00 | 55 | 1016.3 |
| 20260507014519 | 40 | 333 | 0.9 | 4.3 | 0.00 | 0.00 | 0.00 | 55 | 1016.3 |
| 20260507014013 | 40 | 354 | 0.9 | 5.2 | 0.00 | 0.00 | 0.00 | 55 | 1016.4 |
| 20260507013512 | 41 | 311 | 0.9 | 4.3 | 0.00 | 0.00 | 0.00 | 54 | 1016.3 |
| 20260507013028 | 41 | 278 | 1.7 | 5.2 | 0.00 | 0.00 | 0.00 | 54 | 1016.4 |
| 20260507012512 | 41 | 297 | 0.9 | 5.2 | 0.00 | 0.00 | 0.00 | 54 | 1016.4 |
| 20260507012012 | 41 | 304 | 0.0 | 4.3 | 0.00 | 0.00 | 0.00 | 54 | 1016.3 |
| 20260507011514 | 41 | 309 | 0.9 | 4.3 | 0.00 | 0.00 | 0.00 | 54 | 1016.3 |
| 20260507011011 | 41 | 309 | 0.0 | 2.6 | 0.00 | 0.00 | 0.00 | 53 | 1016.3 |
| 20260507010512 | 41 | 26 | 0.0 | 2.6 | 0.00 | 0.00 | 0.00 | 52 | 1016.4 |
| 20260507010018 | 41 | 321 | 0.0 | 5.2 | 0.00 | 0.00 | 0.00 | 52 | 1016.4 |
| 20260507005512 | 41 | 343 | 0.9 | 5.2 | 0.00 | 0.00 | 0.00 | 51 | 1016.3 |
| 20260507005011 | 42 | 47 | 0.9 | 6.1 | 0.00 | 0.00 | 0.00 | 51 | 1016.4 |
| 20260507004512 | 42 | 23 | 1.7 | 6.1 | 0.00 | 0.00 | 0.00 | 51 | 1016.5 |
| 20260507004011 | 42 | 323 | 1.7 | 6.1 | 0.00 | 0.00 | 0.00 | 52 | 1016.5 |
| 20260507003511 | 42 | 335 | 0.9 | 7.0 | 0.00 | 0.00 | 0.00 | 52 | 1016.5 |
| 20260507003010 | 42 | 336 | 2.6 | 7.0 | 0.00 | 0.00 | 0.00 | 50 | 1016.4 |
| 20260507002515 | 42 | 9 | 2.6 | 7.0 | 0.00 | 0.00 | 0.00 | 50 | 1016.5 |
| 20260507002009 | 42 | 12 | 2.6 | 7.0 | 0.00 | 0.00 | 0.00 | 50 | 1016.5 |
| 20260507001510 | 43 | 334 | 1.7 | 9.6 | 0.00 | 0.00 | 0.00 | 51 | 1016.6 |
| 20260507001010 | 43 | 275 | 4.3 | 9.6 | 0.00 | 0.00 | 0.00 | 50 | 1016.6 |
| 20260507000509 | 43 | 340 | 2.6 | 7.8 | 0.00 | 0.00 | 0.00 | 49 | 1016.6 |
| 20260507000008 | 43 | 259 | 2.6 | 7.8 | 0.00 | 0.00 | 0.00 | 49 | 1016.7 |
| 20260506235508 | 43 | 322 | 2.6 | 7.8 | 0.00 | 0.00 | 0.00 | 50 | 1016.7 |
| 20260506235007 | 42 | 332 | 2.6 | 9.6 | 0.00 | 0.00 | 0.00 | 51 | 1016.8 |
| 20260506234507 | 42 | 316 | 0.9 | 9.6 | 0.00 | 0.00 | 0.00 | 51 | 1016.8 |
| 20260506234011 | 42 | 337 | 3.5 | 10.4 | 0.00 | 0.00 | 0.00 | 50 | 1016.8 |
| 20260506233507 | 42 | 324 | 5.2 | 11.3 | 0.00 | 0.00 | 0.00 | 52 | 1016.9 |
| 20260506233008 | 42 | 295 | 7.8 | 14.8 | 0.00 | 0.00 | 0.00 | 51 | 1016.9 |
| 20260506232505 | 42 | 307 | 5.2 | 15.6 | 0.00 | 0.00 | 0.00 | 52 | 1017.0 |
| 20260506232005 | 42 | 293 | 9.6 | 15.6 | 0.00 | 0.00 | 0.00 | 51 | 1016.9 |
| 20260506231505 | 42 | 285 | 10.4 | 15.6 | 0.00 | 0.00 | 0.00 | 52 | 1017.0 |
| 20260506231006 | 42 | 264 | 7.0 | 14.8 | 0.00 | 0.00 | 0.00 | 52 | 1017.0 |
| 20260506230507 | 42 | 283 | 7.8 | 14.8 | 0.00 | 0.00 | 0.00 | 51 | 1016.9 |
| 20260506230009 | 42 | 290 | 8.7 | 14.8 | 0.00 | 0.00 | 0.00 | 51 | 1017.0 |
| 20260506225506 | 42 | 287 | 6.1 | 13.0 | 0.00 | 0.00 | 0.00 | 52 | 1017.0 |
| 20260506225006 | 43 | 242 | 4.3 | 13.0 | 0.00 | 0.00 | 0.00 | 51 | 1017.1 |
| 20260506224505 | 43 | 281 | 7.8 | 15.6 | 0.00 | 0.00 | 0.00 | 52 | 1017.0 |
| 20260506224004 | 43 | 290 | 8.7 | 15.6 | 0.00 | 0.00 | 0.00 | 50 | 1016.9 |
| 20260506223504 | 43 | 287 | 3.5 | 10.4 | 0.00 | 0.00 | 0.00 | 50 | 1017.0 |
| 20260506223004 | 43 | 359 | 5.2 | 10.4 | 0.00 | 0.00 | 0.00 | 50 | 1017.0 |
| 20260506222504 | 43 | 269 | 5.2 | 11.3 | 0.00 | 0.00 | 0.00 | 50 | 1017.0 |
| 20260506222004 | 43 | 291 | 4.3 | 12.2 | 0.00 | 0.00 | 0.00 | 50 | 1017.0 |
| 20260506221504 | 43 | 225 | 7.0 | 14.8 | 0.00 | 0.00 | 0.00 | 50 | 1016.9 |
| 20260506221003 | 43 | 295 | 5.2 | 14.8 | 0.00 | 0.00 | 0.00 | 50 | 1016.9 |
| 20260506220504 | 43 | 311 | 5.2 | 14.8 | 0.00 | 0.00 | 0.00 | 51 | 1016.9 |
| 20260506220003 | 43 | 278 | 4.3 | 13.9 | 0.00 | 0.00 | 0.00 | 50 | 1016.8 |
| 20260506215504 | 43 | 318 | 7.8 | 13.9 | 0.00 | 0.00 | 0.00 | 50 | 1016.9 |
| 20260506215003 | 43 | 281 | 4.3 | 10.4 | 0.00 | 0.00 | 0.00 | 50 | 1017.0 |
| 20260506214507 | 43 | 311 | 3.5 | 11.3 | 0.00 | 0.00 | 0.00 | 50 | 1017.1 |
| 20260506214003 | 43 | 283 | 7.0 | 11.3 | 0.00 | 0.00 | 0.00 | 49 | 1017.0 |
| 20260506213502 | 43 | 336 | 2.6 | 9.6 | 0.00 | 0.00 | 0.00 | 51 | 1017.1 |
| 20260506213002 | 43 | 281 | 4.3 | 9.6 | 0.00 | 0.00 | 0.00 | 50 | 1017.1 |
| 20260506212503 | 43 | 294 | 1.7 | 9.6 | 0.00 | 0.00 | 0.00 | 50 | 1017.1 |
| 20260506212001 | 43 | 292 | 2.6 | 9.6 | 0.00 | 0.00 | 0.00 | 50 | 1017.1 |
| 20260506211501 | 42 | 351 | 4.3 | 11.3 | 0.00 | 0.00 | 0.00 | 50 | 1017.2 |
| 20260506211002 | 42 | 336 | 3.5 | 11.3 | 0.00 | 0.00 | 0.00 | 51 | 1017.3 |
| 20260506210502 | 42 | 285 | 6.1 | 11.3 | 0.00 | 0.00 | 0.00 | 51 | 1017.3 |
| 20260506210003 | 42 | 283 | 5.2 | 11.3 | 0.00 | 0.00 | 0.00 | 51 | 1017.3 |
| 20260506205601 | 42 | 266 | 5.2 | 13.9 | 0.00 | 0.00 | 0.00 | 51 | 1017.4 |
| 20260506205100 | 42 | 316 | 7.8 | 13.9 | 0.00 | 0.00 | 0.00 | 51 | 1017.3 |
| 20260506204602 | 42 | 35 | 2.6 | 10.4 | 0.00 | 0.00 | 0.00 | 51 | 1017.4 |
| 20260506204103 | 42 | 278 | 5.2 | 17.4 | 0.00 | 0.00 | 0.00 | 50 | 1017.5 |
| 20260506203600 | 42 | 307 | 9.6 | 17.4 | 0.00 | 0.00 | 0.00 | 50 | 1017.5 |
| 20260506203100 | 42 | 333 | 4.3 | 8.7 | 0.00 | 0.00 | 0.00 | 52 | 1017.5 |
| 20260506202559 | 42 | 248 | 3.5 | 13.0 | 0.00 | 0.00 | 0.00 | 51 | 1017.5 |
| 20260506202100 | 42 | 284 | 6.1 | 14.8 | 0.00 | 0.00 | 0.00 | 50 | 1017.6 |
| 20260506201559 | 43 | 283 | 7.8 | 14.8 | 0.00 | 0.00 | 0.00 | 51 | 1017.5 |
| 20260506201058 | 43 | 332 | 0.9 | 11.3 | 0.00 | 0.00 | 0.00 | 51 | 1017.5 |
| 20260506200558 | 42 | 332 | 3.5 | 16.5 | 0.00 | 0.00 | 0.00 | 52 | 1017.6 |
| 20260506200058 | 42 | 269 | 11.3 | 16.5 | 0.00 | 0.00 | 0.00 | 50 | 1017.6 |
| 20260506195558 | 43 | 315 | 4.3 | 12.2 | 0.00 | 0.00 | 0.00 | 49 | 1017.6 |
| 20260506195102 | 43 | 360 | 3.5 | 12.2 | 0.00 | 0.00 | 0.00 | 51 | 1017.7 |
| 20260506194601 | 43 | 262 | 1.7 | 12.2 | 0.00 | 0.00 | 0.00 | 53 | 1017.6 |
| 20260506194056 | 42 | 336 | 2.6 | 13.9 | 0.00 | 0.00 | 0.00 | 52 | 1017.6 |
| 20260506193554 | 41 | 277 | 6.1 | 12.2 | 0.00 | 0.00 | 0.00 | 52 | 1017.4 |
| 20260506193054 | 42 | 347 | 5.2 | 10.4 | 0.00 | 0.00 | 0.00 | 52 | 1017.8 |
| 20260506192553 | 42 | 15 | 3.5 | 13.0 | 0.00 | 0.00 | 0.00 | 54 | 1017.7 |
| 20260506192054 | 41 | 273 | 6.1 | 13.9 | 0.00 | 0.00 | 0.00 | 54 | 1017.7 |
| 20260506191552 | 41 | 260 | 7.0 | 16.5 | 0.00 | 0.00 | 0.00 | 52 | 1017.7 |
| 20260506191051 | 41 | 330 | 7.0 | 16.5 | 0.00 | 0.00 | 0.00 | 53 | 1017.7 |
| 20260506190550 | 41 | 318 | 1.7 | 12.2 | 0.00 | 0.00 | 0.00 | 54 | 1017.8 |